Location: Cardiff
(53.7833°N, 113.6000°W)
Time: 20:47:27
(UTC+00:00)

RS-15 - Pass Details

Date: 05 December 2023
Orbit: 1893 x 2151 km, 64.8° (Epoch: 24 February)

Event Time Altitude Azimuth Distance (km) Brightness Sun altitude
Rises 04:15:46 0° 207° (SSW) 5,652 10.5 -42.6°
Reaches altitude 10° 04:19:14 10° 205° (SSW) 4,639 10.0 -43.1°
Enters shadow 04:23:30 27° 201° (SSW) 3,452 9.2 -43.7°
